Flight Track Log - Related Links

Times and Time Zones

All times are in EDT time to prevent confusion due to time zone crossing. See the ASQ5967 flight status page for this flight to view local times or setup timezone preferences in your user account.

Time Position Orientation Groundspeed Altitude Reporting Facility
EDT Latitude Longitude Course Direction KTS MPH feet Rate Location/Type
Wed 10:11:50 AM 42.9333 -78.7500 228° Southwest 158 182 1,400  Level Buffalo TRACON
Wed 10:12:44 AM 42.9000 -78.8000 228° Southwest 191 220 3,400 1,684 Climbing Buffalo TRACON
Wed 10:13:44 AM 42.9000 -78.8833 270° West 252 290 4,600 1,657 Climbing Buffalo TRACON
Wed 10:14:29 AM 42.9000 -78.9333 270° West 260 299 6,300 2,400 Climbing Toronto Center
Wed 10:15:29 AM 42.9167 -79.0333 283° West 270 311 8,800 2,150 Climbing Toronto Center
Wed 10:16:29 AM 42.9167 -79.1333 270° West 280 322 10,600 1,800 Climbing Toronto Center
Wed 10:17:29 AM 42.9167 -79.2500 270° West 290 334 12,400 1,800 Climbing Toronto Center
Wed 10:18:29 AM 42.9333 -79.3667 281° West 300 345 14,200 1,750 Climbing Toronto Center
Wed 10:19:29 AM 42.9333 -79.4667 270° West 310 357 15,900 1,800 Climbing Toronto Center
Wed 10:20:29 AM 42.9500 -79.6167 279° West 310 357 17,800 1,550 Climbing Toronto Center
Wed 10:21:29 AM 42.9500 -79.7167 270° West 310 357 19,000 1,100 Climbing Toronto Center
Wed 10:22:29 AM 42.9667 -79.8333 281° West 320 368 20,000 1,000 Climbing Toronto Center
Wed 10:23:29 AM 42.9667 -79.9667 270° West 350 403 21,000 1,200 Climbing Toronto Center
Wed 10:24:29 AM 42.9667 -80.1167 270° West 360 414 22,400 1,600 Climbing Toronto Center
Wed 10:25:29 AM 42.9500 -80.2500 260° West 360 414 24,200 1,550 Climbing Toronto Center
Wed 10:26:29 AM 42.9500 -80.3833 270° West 350 403 25,500 1,100 Climbing Toronto Center
Wed 10:27:29 AM 42.9500 -80.5000 270° West 360 414 26,400 950 Climbing Toronto Center
Wed 10:28:29 AM 42.9500 -80.6500 270° West 360 414 27,400 1,000 Climbing Toronto Center
Wed 10:29:29 AM 42.9500 -80.8000 270° West 370 426 28,400 1,000 Climbing Toronto Center
Wed 10:30:29 AM 42.9333 -80.9333 260° West 370 426 29,400 950 Climbing Toronto Center
Wed 10:31:29 AM 42.9333 -81.0667 270° West 370 426 30,300 950 Climbing Toronto Center
Wed 10:32:29 AM 42.9500 -81.2333 278° West 370 426 31,300 950 Climbing Toronto Center
Wed 10:33:29 AM 42.9500 -81.3667 270° West 380 437 32,200 900 Climbing Toronto Center
Wed 10:34:29 AM 42.9500 -81.5000 270° West 380 437 33,100 1,000 Climbing Toronto Center
Wed 10:35:29 AM 42.9500 -81.6667 270° West 380 437 34,200 1,000 Climbing Toronto Center
Wed 10:36:29 AM 42.9667 -81.8000 280° West 380 437 35,100 850 Climbing Toronto Center
Wed 10:37:29 AM 42.9500 -81.9333 260° West 380 437 35,900 450 Climbing Toronto Center
Wed 10:38:29 AM 42.9500 -82.0667 270° West 380 437 36,000 50 Climbing Toronto Center
Wed 10:39:29 AM 42.9500 -82.2333 270° West 400 460 36,000  Level Toronto Center
Wed 10:40:29 AM 42.9667 -82.3833 279° West 410 472 36,000  Level Toronto Center
Wed 10:41:29 AM 42.9667 -82.5500 270° West 420 483 36,000  Level Toronto Center
Wed 10:42:21 AM 42.9683 -82.6914 271° West 426 490 36,000  Level Cleveland Center
Wed 10:43:21 AM 42.9692 -82.8531 270° West 431 496 36,000  Level Cleveland Center
Wed 10:44:21 AM 42.9700 -83.0178 270° West 431 496 36,000  Level Cleveland Center
Wed 10:45:21 AM 42.9708 -83.1794 270° West 436 502 36,000 -250 Level Cleveland Center
Wed 10:46:21 AM 42.9608 -83.3381 265° West 436 502 35,500 -650 Descending Cleveland Center
Wed 10:47:21 AM 42.9528 -83.4994 266° West 436 502 34,700 -900 Descending Cleveland Center
Wed 10:48:21 AM 42.9400 -83.6661 264° West 436 502 33,700 -1,000 Descending Cleveland Center
Wed 10:49:21 AM 42.9314 -83.8331 266° West 441 507 32,700 -850 Descending Cleveland Center
Wed 10:50:21 AM 42.9203 -83.9997 265° West 441 507 32,000 -350 Descending Cleveland Center
Wed 10:51:21 AM 42.9086 -84.1778 265° West 441 507 32,000  Level Cleveland Center
Wed 10:52:21 AM 42.9003 -84.3106 265° West 441 507 32,000  Level Cleveland Center
Wed 10:53:31 AM 42.8886 -84.5203 266° West 437 503 32,000  Level Chicago Center
Wed 10:54:33 AM 42.8739 -84.6842 263° West 436 502 32,000  Level Chicago Center
Wed 10:55:35 AM 42.8564 -84.8503 262° West 442 509 32,000  Level Chicago Center
Wed 10:56:36 AM 42.8383 -85.0150 262° West 440 506 32,000  Level Chicago Center
Wed 10:57:38 AM 42.8206 -85.1794 262° West 440 506 32,000  Level Chicago Center
Wed 10:58:40 AM 42.7997 -85.3767 262° West 439 505 32,000 -677 Level Chicago Center
Wed 10:59:42 AM 42.7794 -85.5428 261° West 443 510 30,600 -1,887 Descending Chicago Center
Wed 11:00:44 AM 42.7489 -85.7081 256° West 446 513 28,100 -2,468 Descending Chicago Center
Wed 11:01:46 AM 42.7183 -85.8739 256° West 449 517 25,500 -2,537 Descending Chicago Center
Wed 11:02:47 AM 42.6881 -86.0386 256° West 446 513 22,900 -2,488 Descending Chicago Center
Wed 11:03:49 AM 42.6594 -86.1975 256° West 436 502 20,400 -1,403 Descending Chicago Center
Wed 11:04:51 AM 42.6314 -86.3450 256° West 410 472 20,000 -774 Descending Chicago Center
Wed 11:05:53 AM 42.6033 -86.4922 256° West 403 464 18,800 -1,366 Descending Chicago Center
Wed 11:06:54 AM 42.5761 -86.6389 256° West 403 464 17,200 -1,902 Descending Chicago Center
Wed 11:07:56 AM 42.5425 -86.7978 254° West 373 429 14,900 -2,323 Descending Chicago Center
Wed 11:08:58 AM 42.5061 -86.9247 249° West 363 418 12,400 -2,195 Descending Chicago Center
Wed 11:09:59 AM 42.4733 -87.0483 250° West 350 403 10,400 -1,220 Descending Chicago Center
Wed 11:11:01 AM 42.4417 -87.1631 250° West 329 379 9,900 -677 Descending Chicago Center
Wed 11:12:03 AM 42.4164 -87.2619 251° West 280 322 9,000 -1,220 Descending Chicago Center
Wed 11:13:04 AM 42.3950 -87.3572 253° West 269 310 7,400 -976 Descending Chicago Center
Wed 11:14:06 AM 42.3683 -87.4531 249° West 261 300 7,000 -194 Descending Chicago Center
Wed 11:15:08 AM 42.3169 -87.5464 233° Southwest 268 308 7,000 -49 Level Chicago Center
Wed 11:16:09 AM 42.2631 -87.6008 217° Southwest 264 304 6,900 -439 Descending Chicago Center
Wed 11:17:11 AM 42.2094 -87.6622 220° Southwest 255 293 6,100 -1,016 Descending Chicago Center
Wed 11:18:13 AM 42.1608 -87.7161 219° Southwest 232 267 4,800 -1,243 Descending Chicago Center
Wed 11:19:02 AM 42.1167 -87.7667 220° Southwest 204 235 3,800 -1,101 Descending Chicago TRACON
Wed 11:20:02 AM 42.0833 -87.8000 217° Southwest 183 211 2,800 -950 Descending Chicago TRACON
Wed 11:21:02 AM 42.0500 -87.8500 228° Southwest 157 181 1,900 -800 Descending Chicago TRACON
Wed 11:22:02 AM 42.0167 -87.8833 217° Southwest 130 150 1,200 -700 Descending Chicago TRACON
Wed 11:24:00 AM 41.9817 -87.9067 206° Southwest  Level Estimated

Login

Don't have an account? Register now (free) for customized features, flight alerts, and more!